User: anonymous   Login
Location: Unspecified
(0.0000°N, 0.0000°E)
Time: 11:12:43
(UTC+00:00)
Language:

GSAT 7 - Orbit

View from above orbital plane
View from above orbital plane
View from above satellite
View from above satellite

Ground track
Ground track

The orbit data is extracted from the following two-line orbital elements,

1 39234U 13044B   17083.28901216 -.00000090 +00000-0 +00000-0 0  9991
2 39234 000.0368 120.5333 0003012 184.8637 054.5665 01.00272058011558
Epoch (UTC): 24 March 2017 06:56:10
Eccentricity: 0.0003012
inclination: 0.0368°
perigee height: 35773 km
apogee height: 35799 km
right ascension of ascending node: 120.5333°
argument of perigee: 184.8637°
revolutions per day: 1.00272058
mean anomaly at epoch: 54.5665°
orbit number at epoch: 1155

The dashed part of the orbit path shows where the satellite is in the earth's shadow,  

DLR